Tchien Airport

Jump to: basic info | weather | comments

Related pages: nearby airports | nearby navaids | notams | map

Basic information (top)

Codes: THC GLTN
Location: lon 6.045650, lat -8.138723, elev 790 ft / 241 m msl
Status: small_airport
Scheduled airline service: no
Links: Wikipedia Mobile

Weather (top)

Current conditions for Man Airport 81nm (149km) NNE (rec'd 2013/11/21 04:00Z):

DIMN 210400Z NOL

Airport forecast for Roberts International Airport 133nm (247km) W (rec'd 2014/09/01 06:51Z):

TAF TAF GLRB 010400Z 0106/0212 23010KT 9999 BKN016 
      TEMPO 0107/0111 04006KT 9999 BKN014 
      TEMPO 0112/0116 21010KT 8000 RA/SHRA BKN012 
      BECMG 0118/0120 20008KT 9000

Latest comments (top)

No comments yet for Tchien Airport

More... (top)

See also NOTAMs and nearby airports and navaids, or visit the Tchien Airport page at the main OurAirports website..